Location: Bernay
(48.6766°N, 2.9386°E)
Time: 08:58:55
(UTC+00:00)

Cosmos 1703 - Pass Details

Date: 12 January 2026
Orbit: 413 x 424 km, 82.5° (Epoch: 16 February)

Event Time Altitude Azimuth Distance (km) Brightness Sun altitude
Rises 17:51:45 0° 178° (S) 2,406 6.8 -15.2°
Reaches altitude 10° 17:53:49 10° 173° (S) 1,542 5.7 -15.6°
Maximum altitude 17:57:06 53° 96° (E) 542 2.9 -16.1°
Enters shadow 17:58:22 32° 35° (NE) 780 3.7 -16.3°
